Location: Unspecified
(59.8316°N, 0.0000°E)
Time: 10:45:15
(UTC+00:00)

Vanguard 1 Rocket - Visible Passes

Search period start: 04 April 2026 00:00
Search period end: 14 April 2026 00:00
Orbit: 654 x 4213 km, 34.3° (Epoch: 28 March)

Date Brightness Start Highest point End Pass type
(mag) Time Alt. Az. Time Alt. Az. Time Alt. Az.
4 Apr 10.4 01:20:33 16° SSE 01:20:33 16° SSE 01:25:45 10° SE visible
4 Apr 10.1 03:37:39 12° SW 03:43:09 16° SSW 03:48:32 10° SSE visible
5 Apr 10.7 00:11:31 12° SE 00:11:31 12° SE 00:13:14 10° SE visible
5 Apr 10.2 02:28:37 18° SSW 02:31:00 19° S 02:37:57 10° SE visible
6 Apr 10.4 01:19:32 20° SSE 01:19:32 20° SSE 01:26:39 10° SE visible
6 Apr 10.2 03:36:36 13° SW 03:42:51 17° SSW 03:48:49 10° SSE visible
7 Apr 10.6 00:10:21 16° SE 00:10:21 16° SE 00:14:33 10° SE visible
7 Apr 10.2 02:27:27 20° SSW 02:30:40 21° S 02:38:23 10° SE visible
7 Apr 10.9 23:01:06 10° ESE 23:01:06 10° ESE 23:01:21 10° ESE visible
8 Apr 10.4 01:18:10 23° S 01:18:10 23° S 01:27:13 10° SE visible
8 Apr 10.2 03:35:14 12° SW 03:42:27 18° SSW 03:48:55 10° SSE visible
8 Apr11.221:51:43ESE21:51:43ESE21:27:35Svisible
9 Apr 10.5 00:08:46 21° SSE 00:08:46 21° SSE 00:15:21 10° ESE visible
9 Apr 10.2 02:25:50 20° SSW 02:30:15 23° SSW 02:38:38 10° SSE visible
9 Apr 10.8 22:37:59 10° SSW 22:59:12 15° SE 23:02:36 10° ESE visible
10 Apr 10.3 01:16:13 25° S 01:17:35 25° S 01:27:35 10° SE visible
10 Apr 10.3 03:33:15 11° WSW 03:41:56 18° SSW 03:48:48 10° S visible
10 Apr 11.1 21:27:06 10° S 21:49:19 - ESE 21:33:00 14° SSE visible
10 Apr 10.5 23:48:21 10° SW 00:06:18 25° SSE 00:15:51 10° ESE visible
11 Apr 10.3 02:23:17 19° SW 02:29:44 23° SSW 02:38:43 10° SSE visible
11 Apr 11.2 20:20:58 10° SE 20:25:39 11° SE 20:28:06 11° SE visible
11 Apr 10.7 22:35:00 10° SSW 22:55:38 21° SE 23:03:21 10° ESE visible
12 Apr 10.3 01:00:59 10° SW 01:17:00 27° S 01:27:46 10° SE visible
12 Apr 10.3 03:31:25 10° WSW 03:41:19 18° SSW 03:48:29 10° S visible
12 Apr 10.9 21:23:09 10° S 21:37:44 19° SSE 21:49:45 10° ESE visible
12 Apr 10.5 23:46:16 10° SW 00:03:49 28° S 00:16:08 10° SE visible
13 Apr 10.3 02:15:04 10° WSW 02:29:07 24° SSW 02:38:38 10° SSE visible
13 Apr 11.2 20:13:49 10° SSE 20:24:30 15° SE 20:34:09 10° ESE visible
13 Apr 10.7 22:32:30 10° SSW 22:50:19 26° SSE 23:03:46 10° ESE visible
